Location: Rounton
(54.4000°N, 1.3500°W)
Time: 05:15:51
(UTC+00:00)

A-11 Canister half - Pass Details

Date: 07 December 2021
Orbit: 1524 x 1684 km, 47.3° (Epoch: 17 January)

Event Time Altitude Azimuth Distance (km) Brightness Sun altitude
Exits shadow 04:19:00 54° 215° (SW) 1,961 9.2 -32.4°
Maximum altitude 04:20:20 57° 187° (S) 1,899 9.2 -32.2°
Drops below altitude 10° 04:29:54 10° 113° (ESE) 3,856 11.8 -30.8°
Sets 04:33:02 0° 109° (ESE) 4,820 12.6 -30.3°
